Tacoma Narrows, WA
on Tuesday, January 8, 2013

Tuesday
Previous Day Next Day
Daily Summary
 ActualAverageRecord
Temperature
Mean Temperature °F °F  
Max Temperature 52°F 43°F 52°F (2002)
Min Temperature 42°F 36°F 33°F (2005)
Degree Days
Heating Degree Days 18    
Moisture
Dew Point 43°F   
Average Humidity 86    
Maximum Humidity 93    
Minimum Humidity 76    
Precipitation
Precipitation 0.46 in in in ()
Wind
Wind Speed 10 mph   
Max Wind Speed 31 mph   
Max Gust Speed 43 mph   
Visibility 7 miles   
Events Rain   
Averages and records for this station are not official NWS values.
Key: T is trace of precipitation, MM is missing value
Source: NWS Daily Summary
Seasonal Weather Averages
Time(PST)TemperatureDew PointHumidity Pressure Visibility Wind DirectionWind SpeedGust SpeedPrecipitationEvents Conditions
12:24 AM 46.4°F 39.2°F 76% 30.16 in 10.0 miles SSW 6.9 mph - N/A   Overcast
12:53 AM 45.0°F 39.9°F 82% 30.17 in 10.0 miles South 5.8 mph - N/A   Mostly Cloudy
1:00 AM 44.6°F 39.2°F 81% 30.17 in 10.0 miles South 9.2 mph - N/A   Overcast
1:53 AM 45.0°F 39.9°F 82% 30.17 in 10.0 miles South 9.2 mph - N/A   Overcast
2:53 AM 45.0°F 39.9°F 82% 30.16 in 10.0 miles South 5.8 mph - N/A   Overcast
3:53 AM 45.0°F 39.9°F 82% 30.15 in 10.0 miles SW 5.8 mph - 0.00 in Rain Light Rain
4:37 AM 44.6°F 41.0°F 87% 30.13 in 9.0 miles SSW 5.8 mph - 0.03 in Rain Light Rain
4:53 AM 44.1°F 41.0°F 89% 30.13 in 9.0 miles SSW 4.6 mph - 0.03 in Rain Light Rain
5:53 AM 44.6°F 41.0°F 87% 30.10 in 7.0 miles Calm Calm - N/A Rain Light Rain
6:50 AM 42.8°F 41.0°F 93% 30.05 in 10.0 miles Calm Calm - 0.03 in Rain Light Rain
6:53 AM 43.0°F 41.0°F 93% 30.06 in 10.0 miles Calm Calm - 0.03 in Rain Light Rain
7:53 AM 42.1°F 39.9°F 92% 30.04 in 5.0 miles Calm Calm - 0.03 in Rain Light Rain
8:49 AM 42.8°F 39.2°F 87% 30.02 in 1.8 miles Calm Calm - 0.05 in Rain Light Rain
8:50 AM 42.1°F 39.9°F 92% 30.03 in 1.8 miles Calm Calm - 0.05 in Rain Light Rain
8:57 AM 42.8°F 39.2°F 87% 30.02 in 1.8 miles Calm Calm - 0.01 in Rain Light Rain
9:00 AM 42.8°F 39.2°F 87% 30.02 in 2.0 miles ENE 3.5 mph - 0.01 in Rain Light Rain
9:13 AM 42.8°F 39.2°F 87% 30.02 in 1.8 miles Calm Calm - 0.02 in Rain Light Rain
9:20 AM 42.8°F 39.2°F 87% 30.02 in 2.5 miles NE 3.5 mph - N/A Rain Light Rain
9:53 AM 42.1°F 39.9°F 92% 30.01 in 1.8 miles Calm Calm - 0.04 in Rain Light Rain
10:53 AM 42.1°F 39.9°F 92% 29.98 in 1.8 miles South 3.5 mph - 0.03 in Rain Light Rain
11:53 AM 43.0°F 41.0°F 93% 29.94 in 1.0 miles South 6.9 mph - 0.02 in Rain Light Rain
12:53 PM 46.9°F 45.0°F 93% 29.90 in 1.0 miles South 16.1 mph 21.9 mph 0.02 in   Overcast
1:53 PM 50.0°F 46.9°F 89% 29.87 in 1.0 miles South 21.9 mph 33.4 mph 0.00 in   Overcast
2:00 PM 50.0°F 46.4°F 87% 29.86 in 5.0 miles South 21.9 mph 34.5 mph N/A   Overcast
2:53 PM 51.1°F 46.9°F 86% 29.86 in 5.0 miles South 23.0 mph 29.9 mph 0.00 in   Overcast
3:00 PM 51.8°F 46.4°F 82% 29.86 in 10.0 miles South 21.9 mph 29.9 mph N/A   Overcast
3:53 PM 51.1°F 46.9°F 86% 29.85 in 10.0 miles South 25.3 mph 34.5 mph 0.01 in   Overcast
4:00 PM 51.8°F 46.4°F 82% 29.84 in 10.0 miles South 23.0 mph 34.5 mph N/A   Overcast
4:15 PM 51.8°F 46.4°F 82% 29.83 in 10.0 miles South 24.2 mph 31.1 mph N/A   Overcast
4:32 PM 51.8°F 46.4°F 82% 29.82 in 10.0 miles South 23.0 mph 33.4 mph N/A   Overcast
4:53 PM 51.1°F 46.9°F 86% 29.82 in 10.0 miles South 20.7 mph 40.3 mph N/A   Overcast
5:53 PM 52.0°F 46.0°F 80% 29.81 in 10.0 miles South 31.1 mph 42.6 mph N/A   Overcast
6:00 PM 51.8°F 46.4°F 82% 29.80 in 10.0 miles South 29.9 mph 40.3 mph N/A   Overcast
6:53 PM 51.1°F 46.9°F 86% 29.80 in 10.0 miles South 24.2 mph 32.2 mph N/A   Overcast
7:53 PM 51.1°F 46.0°F 83% 29.79 in 10.0 miles South 27.6 mph 39.1 mph N/A   Overcast
8:53 PM 51.8°F 46.4°F 82% 29.78 in 10.0 miles South 24.2 mph 39.1 mph N/A Rain Light Rain
9:53 PM 51.1°F 46.9°F 86% 29.77 in 10.0 miles South 23.0 mph 34.5 mph 0.02 in Rain Light Rain
10:40 PM 50.0°F 46.4°F 87% 29.76 in 5.0 miles SSW 16.1 mph 28.8 mph 0.06 in Rain Light Rain
10:53 PM 50.0°F 46.9°F 89% 29.77 in 4.0 miles SSW 18.4 mph 28.8 mph 0.09 in Rain Light Rain
11:06 PM 50.0°F 46.4°F 87% 29.75 in 4.0 miles SSW 16.1 mph 27.6 mph 0.03 in Rain Light Rain
11:24 PM 50.0°F 46.4°F 87% 29.75 in 6.0 miles SSW 17.3 mph 32.2 mph 0.05 in Rain Light Rain
11:45 PM 50.0°F 46.4°F 87% 29.75 in 5.0 miles SSW 17.3 mph 29.9 mph 0.07 in Rain Light Rain
11:53 PM 50.0°F 46.9°F 89% 29.76 in 5.0 miles SSW 17.3 mph 29.9 mph 0.09 in Rain Light Rain
Moon Phase
Jan. 08 Jan. 11 Jan. 18 Jan. 26 Feb. 03
Sunrise:07:55 AM (PST) Moon Rise:04:34 AM (PST)1/8
Sunset:04:38 PM (PST) Moon Set:01:46 PM (PST)1/8

Copyright © 2014 The Weather Underground, Inc.